Wind_Speed
39 39 39 39 40 41 41 40 40 40 41 41 42 42 43 42 41 41 40 40 39 37 36 34 33 32 30 28 26 24 22 21 20 19 18 18 17 16
40 41 41 41 41 42 42 42 42 42 42 43 44 44 45 44 43 43 42 41 41 39 38 36 35 33 31 29 28 25 24 22 21 19 18 17 16 16
41 41 41 42 42 43 43 43 44 43 43 43 44 45 46 46 46 44 44 43 42 41 40 39 37 35 33 31 29 27 25 24 22 20 19 17 16 15
41 42 42 42 43 44 45 45 45 46 45 45 46 46 47 48 48 46 46 46 45 44 42 41 39 37 35 33 30 28 27 25 23 22 20 18 17 15
42 43 44 44 44 45 45 46 47 48 49 48 48 48 48 48 49 48 48 48 47 46 45 43 41 39 37 35 33 31 29 27 25 23 21 19 18 16
42 43 44 45 45 46 47 47 48 49 50 51 51 50 49 49 50 49 50 50 49 48 47 46 44 42 40 37 35 33 31 29 27 25 23 21 19 18
42 43 43 44 45 47 48 49 49 50 51 52 53 52 51 52 51 51 52 51 51 51 50 48 46 44 43 40 38 36 33 31 29 27 25 23 21 20
41 42 43 44 46 47 48 50 51 51 52 54 54 55 54 54 55 54 54 54 53 52 51 50 48 47 45 43 41 38 36 34 31 29 27 26 24 22
40 41 42 43 45 47 49 50 52 53 54 54 56 55 56 55 56 56 55 55 54 54 54 52 50 48 47 45 43 41 38 36 34 32 30 28 26 24
38 39 40 42 44 46 48 50 51 53 54 56 57 57 57 56 56 58 57 56 56 55 55 54 52 50 48 47 45 43 40 38 36 34 32 30 28 26
36 37 38 40 42 44 47 49 51 53 54 55 57 59 60 58 56 57 58 58 56 56 55 54 52 51 49 48 47 45 43 40 39 36 34 32 30 28
32 34 36 37 39 41 43 47 50 52 54 55 57 59 60 60 58 57 57 58 57 55 55 54 53 52 50 49 48 47 45 43 41 39 36 34 32 30
29 30 32 33 36 38 40 43 46 49 52 54 57 59 60 61 59 58 58 57 56 56 55 54 53 53 52 50 49 48 47 45 43 41 38 36 34 32
25 26 27 28 30 33 36 39 42 46 49 52 55 58 59 60 60 58 58 58 56 57 57 54 53 54 52 51 50 49 48 47 45 42 40 38 36 34
23 24 24 25 26 29 32 36 39 42 45 48 51 54 57 59 60 60 59 58 57 58 57 54 52 52 53 51 50 50 49 47 45 43 41 39 37 35
20 20 20 21 23 25 28 31 34 38 41 44 47 50 54 56 58 58 58 57 56 57 55 54 53 52 51 50 50 50 49 48 46 44 41 39 37 36
18 17 17 18 20 23 25 28 30 33 37 41 44 47 50 52 54 55 56 56 56 55 56 54 53 54 51 51 51 50 49 48 47 45 42 40 38 37
16 14 14 15 17 20 23 26 29 30 33 36 40 43 46 48 51 52 53 53 54 54 54 53 53 53 52 50 49 48 48 47 47 45 42 40 39 38
13 11 11 12 14 17 20 24 26 28 30 32 36 40 42 44 47 49 50 50 51 52 54 54 53 52 51 49 48 46 46 47 46 45 42 41 40 39
11 9 8 9 12 15 18 21 23 25 27 30 33 36 39 41 44 47 49 49 49 50 52 53 52 50 49 49 47 46 46 45 45 44 42 41 40 38
8 6 6 8 11 14 16 19 21 23 25 27 30 32 35 38 39 42 45 47 49 49 49 50 51 50 49 49 47 46 46 45 44 44 42 40 39 38
7 5 4 6 10 13 15 18 20 21 23 25 27 29 32 34 35 38 41 44 47 48 49 49 50 50 49 47 46 46 46 45 44 43 41 39 38 37
6 4 4 6 9 12 14 16 18 20 22 24 25 26 28 31 33 35 39 42 44 46 47 47 48 49 48 47 45 45 45 44 43 43 42 41 39 37
Wind_Direction
264 261 258 256 253 249 245 241 238 236 235 233 230 226 224 223 222 221 220 219 218 218 217 216 216 216 216 216 216 218 219 221 224 228 231 233 237 242
264 261 258 254 252 248 243 240 237 236 235 232 229 226 223 221 220 220 220 219 217 216 216 215 214 213 213 214 215 217 218 220 223 226 228 232 237 242
264 260 257 254 251 248 243 240 237 235 234 232 228 225 223 222 220 220 219 218 217 216 216 215 214 213 213 214 215 217 218 219 221 225 228 230 235 242
264 260 257 254 250 247 244 241 237 234 233 230 228 225 223 222 220 219 218 218 217 216 215 215 214 214 214 214 215 216 218 219 221 225 228 231 236 244
265 261 257 254 250 247 244 241 237 234 232 229 228 226 224 223 220 218 218 218 217 217 215 215 215 216 216 216 216 217 219 220 221 225 229 232 237 245
265 261 257 253 250 246 243 241 239 236 233 229 227 227 225 223 221 220 219 217 217 217 216 216 216 217 217 217 218 218 219 221 222 225 230 234 239 246
266 261 257 253 250 247 243 240 238 236 233 229 227 226 225 223 222 220 219 218 218 217 216 216 217 218 218 218 219 220 220 222 224 227 231 236 241 247
266 261 256 254 251 247 244 240 237 236 233 230 227 225 224 224 222 220 219 218 218 217 217 217 218 219 219 219 220 221 222 224 227 230 233 237 242 247
266 261 257 254 251 247 244 240 237 235 232 229 226 224 223 222 222 221 219 218 219 217 217 218 219 220 220 220 220 222 223 225 227 230 234 237 241 246
268 263 258 255 251 248 243 239 236 234 231 228 225 222 222 221 221 222 220 220 219 218 218 218 219 220 221 221 221 222 224 225 228 231 233 237 241 244
271 264 260 257 252 247 242 237 234 232 230 227 225 222 220 219 219 220 221 219 220 219 218 218 218 219 220 221 221 222 224 226 228 230 233 236 240 243
275 267 262 257 252 247 241 236 233 231 230 227 225 222 220 219 219 218 218 218 218 220 219 218 218 219 220 221 222 223 224 226 227 229 232 235 238 242
279 271 265 258 251 245 239 234 231 230 228 227 224 222 220 219 218 217 217 217 217 217 217 217 218 218 219 220 221 222 223 225 227 229 232 235 238 241
281 275 267 259 250 243 237 232 229 228 226 225 223 221 219 219 218 217 217 216 217 216 216 216 217 217 218 219 221 222 223 224 226 229 231 234 237 241
286 277 268 259 249 241 236 230 227 225 224 223 221 220 219 219 219 218 217 216 216 216 216 216 216 217 217 218 220 222 223 224 226 228 230 233 236 240
292 281 268 259 248 238 232 227 224 222 220 219 219 218 218 218 217 218 217 216 216 216 216 216 215 214 216 219 220 221 222 224 226 228 229 232 236 239
295 284 269 257 246 235 229 223 219 219 217 216 216 216 216 216 216 215 216 216 216 216 217 215 215 215 216 219 220 221 222 223 225 227 230 232 235 238
299 284 267 255 243 232 224 219 214 213 212 213 213 213 213 213 214 214 214 215 215 215 215 215 215 215 215 216 219 220 222 223 225 226 228 231 234 237
302 290 268 248 235 225 217 212 209 210 210 211 210 210 211 212 212 212 212 214 214 214 215 215 215 215 216 217 218 220 221 223 224 225 227 229 232 235
308 295 266 236 222 213 209 206 206 207 208 208 208 208 209 210 211 210 210 211 211 212 213 214 214 215 216 216 217 219 219 220 222 223 225 228 231 234
313 302 269 228 212 205 200 200 202 204 206 205 206 207 208 208 209 210 210 210 210 211 212 213 212 213 215 215 215 216 217 218 220 221 224 226 229 231
320 300 257 215 204 201 199 200 202 203 201 201 202 204 205 206 207 208 208 208 209 210 210 210 210 210 213 215 216 217 217 218 219 221 224 226 227 230
330 303 236 202 201 201 199 197 198 198 199 200 201 202 203 204 204 205 206 206 207 208 209 209 209 210 212 214 215 217 219 220 221 222 223 225 227 230
Height
5731 5732 5734 5736 5738 5741 5745 5750 5754 5758 5762 5767 5772 5777 5783 5788 5794 5800 5805 5811 5816 5822 5827 5833 5838 5843 5848 5852 5856 5860 5864 5867 5870 5873 5875 5878 5880 5882
5718 5720 5722 5724 5726 5729 5733 5738 5742 5747 5752 5757 5762 5767 5773 5779 5784 5791 5797 5803 5808 5814 5820 5826 5831 5837 5842 5846 5851 5855 5859 5863 5866 5869 5872 5874 5876 5878
5705 5707 5709 5711 5714 5717 5721 5725 5730 5735 5741 5746 5751 5756 5763 5768 5775 5781 5787 5794 5800 5806 5813 5819 5825 5830 5835 5840 5845 5850 5854 5858 5861 5865 5867 5870 5872 5874
5691 5693 5695 5697 5700 5704 5708 5712 5718 5723 5729 5735 5740 5746 5752 5758 5764 5771 5778 5785 5792 5798 5805 5811 5818 5823 5829 5834 5839 5844 5849 5853 5857 5860 5863 5866 5868 5869
5677 5678 5680 5683 5686 5690 5694 5699 5704 5710 5716 5723 5729 5735 5741 5747 5754 5761 5768 5775 5782 5789 5796 5803 5810 5816 5822 5828 5833 5838 5843 5847 5851 5855 5858 5861 5863 5865
5662 5663 5665 5668 5671 5675 5679 5684 5690 5696 5702 5709 5717 5723 5730 5736 5743 5750 5758 5765 5773 5780 5787 5795 5802 5808 5815 5821 5827 5832 5837 5842 5846 5850 5853 5856 5858 5860
5646 5647 5649 5652 5656 5659 5664 5669 5675 5681 5688 5695 5703 5710 5717 5725 5732 5739 5747 5754 5762 5770 5778 5786 5793 5800 5807 5813 5820 5825 5830 5835 5840 5844 5847 5851 5853 5856
5631 5631 5633 5636 5640 5643 5648 5654 5660 5666 5673 5681 5689 5697 5705 5712 5720 5728 5736 5744 5753 5762 5769 5776 5784 5791 5799 5806 5812 5818 5823 5828 5833 5837 5841 5845 5848 5850
5615 5616 5617 5620 5623 5627 5632 5637 5643 5650 5658 5666 5675 5682 5691 5700 5708 5717 5724 5733 5742 5750 5758 5766 5774 5782 5790 5797 5803 5810 5816 5821 5826 5831 5835 5839 5842 5845
5600 5600 5602 5604 5607 5610 5615 5621 5627 5635 5643 5651 5660 5668 5676 5685 5694 5704 5712 5720 5729 5737 5746 5755 5764 5772 5780 5788 5795 5801 5807 5813 5819 5824 5828 5832 5836 5838
5585 5585 5587 5588 5591 5594 5599 5605 5612 5619 5626 5635 5644 5653 5662 5672 5681 5691 5700 5708 5717 5726 5736 5745 5754 5762 5770 5778 5785 5792 5799 5805 5811 5816 5821 5825 5829 5832
5572 5572 5572 5573 5575 5578 5583 5589 5597 5604 5611 5620 5629 5639 5648 5658 5668 5678 5688 5697 5706 5716 5725 5735 5744 5752 5760 5768 5776 5783 5790 5797 5803 5808 5813 5818 5822 5825
5561 5559 5559 5559 5561 5564 5569 5576 5582 5589 5596 5605 5614 5625 5635 5645 5655 5665 5675 5686 5696 5706 5715 5724 5733 5742 5751 5759 5766 5774 5781 5788 5794 5800 5805 5810 5814 5818
5550 5548 5548 5548 5549 5553 5557 5563 5569 5576 5584 5592 5602 5612 5623 5633 5643 5653 5663 5673 5683 5694 5703 5712 5722 5731 5740 5749 5757 5764 5771 5778 5785 5791 5797 5802 5806 5810
5541 5540 5539 5539 5540 5543 5547 5552 5558 5565 5573 5581 5591 5601 5610 5620 5630 5641 5652 5662 5672 5682 5692 5702 5712 5721 5730 5739 5747 5755 5762 5769 5776 5782 5788 5794 5798 5802
5534 5532 5531 5531 5532 5535 5539 5543 5549 5556 5564 5572 5580 5589 5599 5609 5620 5631 5642 5652 5662 5672 5682 5691 5701 5711 5720 5729 5738 5745 5753 5760 5767 5774 5780 5785 5790 5794
5527 5525 5524 5524 5526 5528 5532 5537 5542 5549 5556 5564 5572 5580 5590 5600 5610 5621 5631 5642 5652 5663 5672 5682 5692 5701 5711 5719 5728 5736 5744 5751 5758 5765 5771 5777 5782 5786
5522 5520 5519 5519 5520 5523 5526 5531 5537 5543 5550 5557 5565 5573 5582 5592 5602 5612 5623 5633 5643 5653 5663 5672 5682 5691 5701 5710 5719 5727 5734 5742 5749 5756 5762 5768 5773 5778
5518 5516 5515 5515 5516 5519 5522 5527 5533 5539 5545 5552 5560 5567 5576 5585 5594 5604 5614 5624 5634 5643 5654 5663 5673 5683 5693 5702 5711 5718 5726 5733 5740 5747 5753 5759 5765 5769
5515 5513 5512 5513 5514 5517 5520 5525 5530 5536 5542 5548 5555 5563 5571 5579 5588 5597 5606 5616 5625 5635 5645 5655 5665 5675 5685 5694 5701 5709 5716 5724 5731 5738 5744 5749 5755 5761
5513 5512 5511 5512 5513 5516 5520 5524 5529 5534 5539 5545 5551 5558 5566 5574 5582 5590 5599 5608 5618 5627 5637 5647 5656 5665 5674 5683 5692 5700 5707 5715 5722 5729 5735 5741 5747 5752
5513 5511 5511 5511 5513 5516 5519 5523 5527 5532 5537 5543 5549 5555 5562 5569 5577 5585 5593 5601 5610 5620 5629 5638 5647 5657 5666 5675 5684 5691 5699 5706 5713 5720 5727 5734 5738 5743
5512 5511 5511 5512 5513 5516 5519 5522 5526 5531 5536 5541 5546 5552 5559 5566 5572 5580 5587 5595 5603 5612 5621 5631 5640 5649 5658 5667 5675 5683 5691 5698 5705 5712 5719 5724 5730 5736